Wind_Speed
49 51 52 52 52 52 52 54 57 61 64 65 67 68 68 68 67 66 65 66 67 66 66 66 70 77 77
47 48 49 51 54 57 59 63 65 67 70 73 74 74 73 73 72 72 71 69 70 71 73 69 68 64 69
48 49 50 53 56 61 63 64 65 62 59 58 58 58 59 66 74 76 76 75 74 72 72 70 70 69 65
49 50 53 56 58 60 60 57 56 57 58 57 57 58 59 61 61 63 73 77 78 77 75 73 72 71 70
50 52 56 57 57 57 56 55 53 53 53 53 55 56 58 61 62 64 64 69 74 79 79 78 74 73 71
53 55 55 56 56 56 55 54 50 51 53 53 55 55 54 53 54 57 64 68 69 73 78 79 79 75 73
54 53 53 55 57 56 54 52 53 54 56 53 52 53 54 54 56 57 56 58 69 75 73 78 79 77 74
53 52 53 53 52 52 53 55 56 56 58 57 60 63 63 64 66 66 66 67 63 70 77 75 79 80 74
52 50 50 51 52 54 56 58 57 59 65 70 71 73 72 71 72 72 73 74 75 70 73 79 76 81 76
48 46 49 51 53 56 58 60 62 63 68 72 72 76 74 72 74 76 78 79 79 76 72 75 79 79 81
44 45 51 53 56 61 66 69 71 72 75 80 79 80 83 81 79 80 81 80 79 74 72 71 78 79 80
43 49 53 57 63 65 68 71 76 80 81 85 84 79 77 73 72 68 69 70 70 68 68 69 73 78 79
45 50 56 59 61 65 69 74 76 76 72 68 66 62 62 61 58 57 58 58 60 60 64 67 68 76 78
46 51 54 57 62 64 63 64 60 52 49 45 43 39 37 38 42 43 46 48 47 52 60 63 63 73 77
47 49 53 57 56 55 57 58 52 47 42 41 40 38 34 32 31 32 29 32 36 42 54 58 59 70 74
46 50 53 50 51 53 54 54 51 46 44 43 41 38 36 33 35 31 29 28 30 35 45 55 57 64 71
47 48 46 46 44 41 40 44 46 45 43 41 37 34 30 28 32 37 32 30 31 31 40 51 54 60 68
Wind_Direction
280 281 282 283 283 283 284 283 282 281 279 278 276 275 272 269 266 263 259 256 253 251 251 251 249 248 244
284 284 286 287 288 288 288 287 286 283 279 276 273 269 266 264 262 260 259 257 255 253 251 249 249 250 248
288 288 290 291 292 292 290 285 283 282 280 279 277 275 272 265 259 257 256 255 255 253 252 251 251 249 250
290 292 293 293 291 287 285 284 281 279 277 276 276 277 275 271 266 264 257 253 253 253 252 250 250 249 248
294 295 293 292 288 285 283 282 281 279 279 280 280 280 280 279 277 273 262 258 253 251 249 247 246 246 246
295 293 292 289 287 285 283 281 281 281 279 279 279 279 279 279 279 278 275 268 257 253 249 246 244 243 242
295 293 290 289 288 286 284 283 282 281 281 279 276 279 278 278 278 277 279 277 269 258 250 245 242 239 238
293 291 289 287 286 285 285 285 285 283 282 281 278 280 280 280 279 279 279 279 282 269 254 245 240 237 234
293 291 289 292 292 291 291 290 287 283 282 281 281 281 280 279 277 276 277 277 277 279 261 247 239 234 232
291 288 293 296 298 298 297 295 292 290 288 286 284 283 279 277 275 274 273 273 274 275 265 247 239 232 230
289 288 296 298 300 300 300 298 296 294 292 289 286 282 279 276 272 271 270 269 269 267 260 247 236 230 227
291 293 299 301 302 303 302 301 300 297 294 291 289 286 282 279 276 270 268 265 262 258 252 246 233 227 225
298 302 303 306 308 307 307 307 306 305 300 295 291 288 285 282 278 273 268 263 261 255 246 242 232 223 223
304 306 310 313 313 315 319 318 320 316 316 312 310 309 303 296 287 279 271 266 260 252 243 237 231 220 219
308 313 316 318 321 325 329 331 331 329 327 322 320 316 311 304 296 291 281 266 256 246 240 233 228 220 216
314 319 321 325 327 329 332 332 334 335 330 324 321 317 311 306 295 287 283 272 256 245 237 230 223 220 213
320 323 326 331 334 337 340 340 339 338 336 335 331 325 318 307 298 298 288 272 261 249 240 230 218 217 210
Height
5593 5590 5587 5584 5583 5581 5579 5577 5573 5570 5568 5567 5566 5564 5564 5564 5564 5565 5568 5571 5574 5578 5582 5585 5591 5598 5605
5578 5576 5573 5569 5566 5563 5560 5557 5553 5549 5546 5544 5542 5541 5541 5541 5541 5543 5546 5549 5553 5557 5562 5566 5569 5574 5582
5564 5561 5558 5554 5550 5545 5540 5537 5533 5527 5524 5521 5519 5517 5517 5517 5518 5519 5522 5525 5530 5533 5538 5543 5549 5555 5561
5550 5546 5541 5536 5532 5528 5523 5518 5514 5510 5507 5505 5501 5498 5496 5496 5497 5497 5497 5500 5504 5509 5513 5520 5528 5534 5540
5534 5529 5523 5518 5512 5508 5506 5502 5498 5493 5491 5488 5484 5482 5479 5477 5475 5475 5476 5477 5479 5483 5488 5497 5504 5512 5519
5517 5512 5505 5500 5495 5492 5488 5485 5483 5477 5475 5473 5468 5467 5464 5461 5457 5454 5454 5454 5456 5459 5464 5471 5480 5489 5497
5500 5493 5489 5483 5479 5474 5470 5468 5465 5462 5456 5455 5450 5449 5447 5444 5439 5435 5433 5431 5431 5434 5440 5446 5455 5465 5475
5483 5478 5473 5468 5463 5458 5454 5450 5448 5442 5435 5435 5432 5428 5426 5423 5418 5414 5411 5407 5407 5408 5413 5421 5430 5440 5452
5467 5462 5457 5452 5447 5442 5438 5433 5430 5425 5417 5409 5408 5404 5401 5400 5394 5390 5386 5383 5382 5383 5384 5392 5404 5415 5429
5452 5448 5443 5437 5431 5425 5419 5413 5408 5404 5393 5384 5381 5372 5375 5374 5368 5363 5358 5356 5355 5356 5356 5364 5376 5389 5404
5440 5436 5430 5424 5417 5409 5400 5391 5384 5377 5365 5353 5351 5344 5334 5338 5341 5332 5326 5326 5325 5328 5328 5334 5348 5363 5380
5428 5424 5418 5411 5402 5392 5382 5369 5356 5346 5337 5320 5313 5307 5300 5299 5299 5299 5295 5295 5295 5299 5302 5308 5321 5338 5355
5417 5411 5404 5395 5385 5374 5362 5347 5333 5316 5301 5288 5279 5278 5273 5270 5268 5267 5266 5268 5268 5272 5277 5286 5298 5314 5332
5406 5399 5390 5380 5369 5356 5344 5328 5313 5299 5284 5272 5264 5259 5255 5249 5244 5244 5242 5242 5246 5249 5255 5266 5279 5294 5311
5394 5386 5377 5366 5354 5341 5329 5316 5301 5289 5278 5267 5258 5250 5245 5239 5234 5228 5227 5227 5227 5231 5236 5248 5261 5275 5293
5382 5374 5364 5352 5341 5330 5319 5306 5293 5280 5269 5259 5251 5243 5236 5230 5221 5220 5219 5216 5216 5219 5222 5232 5246 5258 5277
5371 5362 5352 5342 5332 5323 5312 5299 5287 5274 5263 5252 5243 5234 5228 5223 5215 5207 5207 5207 5208 5210 5211 5218 5234 5246 5264